When you browse on this site, cookies collect data to enhance your experience and personalize the content and advertising you see.
Visit our Privacy Policy to learn more. By continuing to use the site, you agree to this use of cookies and data.

Meteo pe oră la Alibaevskoe

Astăzi, 6 August, Joi

Timp Temperatura Precipitaţii Vânt Presiune Umiditate
00:00 +21°C° 0 mm 6 m/s 726 mmHg 73%
01:00 +21°C° 0 mm 5 m/s 726 mmHg 74%
02:00 +20°C° 0 mm 5 m/s 726 mmHg 76%
03:00 +20°C° 0 mm 6 m/s 726 mmHg 78%
04:00 +19°C° 0 mm 6 m/s 726 mmHg 82%
05:00 +20°C° 0 mm 6 m/s 727 mmHg 79%
06:00 +21°C° 0 mm 7 m/s 727 mmHg 76%
07:00 +21°C° 0 mm 7 m/s 727 mmHg 73%
08:00 +23°C° 0 mm 8 m/s 727 mmHg 66%
09:00 +24°C° 0 mm 8 m/s 727 mmHg 59%
10:00 +27°C° 0 mm 9 m/s 727 mmHg 51%
11:00 +28°C° 0 mm 9 m/s 727 mmHg 48%
12:00 +28°C° 0 mm 9 m/s 727 mmHg 45%
13:00 +29°C° 0 mm 9 m/s 726 mmHg 43%
14:00 +29°C° 0 mm 8 m/s 726 mmHg 42%
15:00 +29°C° 0 mm 8 m/s 726 mmHg 42%
16:00 +29°C° 0 mm 8 m/s 726 mmHg 42%
17:00 +28°C° 0 mm 7 m/s 726 mmHg 47%
18:00 +27°C° 0 mm 7 m/s 726 mmHg 52%
19:00 +24°C° 0 mm 6 m/s 726 mmHg 56%
20:00 +24°C° 0 mm 6 m/s 726 mmHg 59%
21:00 +23°C° 0 mm 6 m/s 726 mmHg 61%
22:00 +22°C° 0 mm 6 m/s 726 mmHg 63%
23:00 +21°C° 0 mm 6 m/s 725 mmHg 64%

Mâine, 7 August, Vineri

Timp Temperatura Precipitaţii Vânt Presiune Umiditate
00:00 +21°C° 0 mm 6 m/s 725 mmHg 66%
01:00 +20°C° 0 mm 6 m/s 724 mmHg 68%
02:00 +20°C° 0 mm 6 m/s 724 mmHg 69%
03:00 +19°C° 0 mm 6 m/s 725 mmHg 71%
04:00 +19°C° 0 mm 6 m/s 725 mmHg 73%
05:00 +18°C° 0 mm 7 m/s 724 mmHg 73%
06:00 +18°C° 0 mm 7 m/s 724 mmHg 72%
07:00 +18°C° 0 mm 7 m/s 724 mmHg 72%
08:00 +21°C° 0 mm 7 m/s 724 mmHg 67%
09:00 +23°C° 0 mm 7 m/s 724 mmHg 61%
10:00 +24°C° 0 mm 7 m/s 724 mmHg 55%
11:00 +26°C° 0 mm 7 m/s 724 mmHg 51%
12:00 +28°C° 0 mm 7 m/s 723 mmHg 47%
13:00 +29°C° 0 mm 7 m/s 723 mmHg 43%
14:00 +29°C° 0 mm 7 m/s 723 mmHg 43%
15:00 +29°C° 0 mm 7 m/s 723 mmHg 42%
16:00 +29°C° 0 mm 7 m/s 723 mmHg 42%
17:00 +27°C° 0 mm 6 m/s 722 mmHg 47%
18:00 +25°C° 0 mm 5 m/s 722 mmHg 52%
19:00 +23°C° 0 mm 5 m/s 721 mmHg 57%
20:00 +22°C° 0 mm 4 m/s 721 mmHg 60%
21:00 +22°C° 0 mm 4 m/s 721 mmHg 63%
22:00 +21°C° 0 mm 4 m/s 721 mmHg 66%
23:00 +21°C° 0.1 mm 4 m/s 721 mmHg 67%

Poimâine, 8 August, Sâmbătă

Timp Temperatura Precipitaţii Vânt Presiune Umiditate
00:00 +20°C° 0.1 mm 4 m/s 720 mmHg 69%
01:00 +20°C° 0.1 mm 4 m/s 720 mmHg 71%
02:00 +19°C° 0.6 mm 4 m/s 720 mmHg 75%
03:00 +19°C° 0.6 mm 4 m/s 720 mmHg 80%
04:00 +18°C° 0.6 mm 4 m/s 719 mmHg 84%
05:00 +18°C° 1 mm 4 m/s 719 mmHg 85%
06:00 +18°C° 1 mm 4 m/s 719 mmHg 86%
07:00 +17°C° 1 mm 5 m/s 718 mmHg 87%
08:00 +19°C° 0.3 mm 5 m/s 718 mmHg 82%
09:00 +20°C° 0.3 mm 6 m/s 718 mmHg 78%
10:00 +21°C° 0.3 mm 7 m/s 718 mmHg 73%
11:00 +22°C° 1.2 mm 6 m/s 718 mmHg 72%
12:00 +22°C° 1.2 mm 5 m/s 718 mmHg 70%
13:00 +23°C° 1.2 mm 5 m/s 718 mmHg 68%
14:00 +23°C° 2.5 mm 5 m/s 717 mmHg 67%
15:00 +23°C° 2.5 mm 4 m/s 717 mmHg 66%
16:00 +23°C° 2.5 mm 4 m/s 717 mmHg 65%
17:00 +22°C° 0.4 mm 4 m/s 717 mmHg 68%
18:00 +21°C° 0.4 mm 3 m/s 717 mmHg 72%
19:00 +20°C° 0.4 mm 3 m/s 716 mmHg 76%
20:00 +19°C° 0 mm 2 m/s 716 mmHg 78%
21:00 +18°C° 0 mm 2 m/s 716 mmHg 81%
22:00 +17°C° 0 mm 2 m/s 716 mmHg 83%
23:00 +17°C° 0 mm 2 m/s 715 mmHg 83%

9 August, Duminică

Timp Temperatura Precipitaţii Vânt Presiune Umiditate
00:00 +17°C° 0 mm 2 m/s 715 mmHg 82%
01:00 +17°C° 0 mm 2 m/s 715 mmHg 82%
02:00 +17°C° 0 mm 2 m/s 715 mmHg 82%
03:00 +16°C° 0 mm 1 m/s 714 mmHg 82%
04:00 +16°C° 0 mm 1 m/s 714 mmHg 81%
05:00 +18°C° 0.1 mm 1 m/s 714 mmHg 81%
06:00 +18°C° 0.1 mm 1 m/s 714 mmHg 80%
07:00 +19°C° 0.1 mm 1 m/s 714 mmHg 80%
08:00 +19°C° 0 mm 1 m/s 714 mmHg 77%
09:00 +20°C° 0 mm 1 m/s 714 mmHg 73%
10:00 +21°C° 0 mm 1 m/s 714 mmHg 70%
11:00 +22°C° 0.2 mm 1 m/s 714 mmHg 66%
12:00 +23°C° 0.2 mm 1 m/s 714 mmHg 62%
13:00 +24°C° 0.2 mm 2 m/s 714 mmHg 58%
14:00 +24°C° 0.7 mm 2 m/s 714 mmHg 60%
15:00 +24°C° 0.7 mm 3 m/s 714 mmHg 62%
16:00 +23°C° 0.7 mm 4 m/s 713 mmHg 64%
17:00 +22°C° 0.4 mm 4 m/s 713 mmHg 69%
18:00 +21°C° 0.4 mm 3 m/s 713 mmHg 73%
19:00 +20°C° 0.4 mm 3 m/s 713 mmHg 78%
20:00 +19°C° 0.1 mm 3 m/s 713 mmHg 81%
21:00 +18°C° 0.1 mm 3 m/s 712 mmHg 84%
22:00 +17°C° 0.1 mm 4 m/s 712 mmHg 87%
23:00 +17°C° 0 mm 4 m/s 712 mmHg 88%

10 August, Luni

Timp Temperatura Precipitaţii Vânt Presiune Umiditate
00:00 +15°C° 0 mm 5 m/s 712 mmHg 90%
01:00 +15°C° 0 mm 5 m/s 712 mmHg 92%
02:00 +15°C° 0 mm 5 m/s 712 mmHg 91%
03:00 +15°C° 0 mm 5 m/s 712 mmHg 91%
04:00 +15°C° 0 mm 6 m/s 711 mmHg 90%
05:00 +16°C° 0.1 mm 6 m/s 712 mmHg 89%
06:00 +16°C° 0.1 mm 6 m/s 712 mmHg 88%
07:00 +16°C° 0.1 mm 6 m/s 712 mmHg 86%
08:00 +17°C° 0.1 mm 5 m/s 712 mmHg 85%
09:00 +17°C° 0.1 mm 5 m/s 712 mmHg 83%
10:00 +19°C° 0.1 mm 5 m/s 712 mmHg 82%
11:00 +19°C° 0.4 mm 6 m/s 712 mmHg 80%
12:00 +20°C° 0.4 mm 6 m/s 713 mmHg 78%
13:00 +21°C° 0.4 mm 7 m/s 713 mmHg 75%
14:00 +20°C° 0.1 mm 8 m/s 713 mmHg 75%
15:00 +20°C° 0.1 mm 8 m/s 713 mmHg 74%
16:00 +19°C° 0.1 mm 9 m/s 713 mmHg 74%
17:00 +18°C° 0.1 mm 8 m/s 714 mmHg 76%
18:00 +17°C° 0.1 mm 8 m/s 714 mmHg 78%
19:00 +16°C° 0.1 mm 8 m/s 714 mmHg 80%
20:00 +15°C° 0 mm 8 m/s 714 mmHg 81%
21:00 +15°C° 0 mm 8 m/s 714 mmHg 81%
22:00 +15°C° 0 mm 8 m/s 714 mmHg 82%
23:00 +14°C° 0 mm 7 m/s 714 mmHg 82%

11 August, Marţi

Timp Temperatura Precipitaţii Vânt Presiune Umiditate
00:00 +14°C° 0 mm 7 m/s 715 mmHg 82%
01:00 +14°C° 0 mm 7 m/s 715 mmHg 82%
02:00 +14°C° 0 mm 7 m/s 715 mmHg 82%
03:00 +14°C° 0 mm 7 m/s 715 mmHg 83%
04:00 +14°C° 0 mm 7 m/s 715 mmHg 83%
05:00 +13°C° 0 mm 8 m/s 715 mmHg 82%
06:00 +13°C° 0 mm 8 m/s 715 mmHg 81%
07:00 +12°C° 0 mm 8 m/s 715 mmHg 80%
08:00 +13°C° 0 mm 8 m/s 715 mmHg 77%
09:00 +15°C° 0 mm 8 m/s 716 mmHg 74%
10:00 +15°C° 0 mm 8 m/s 716 mmHg 72%
11:00 +16°C° 0 mm 8 m/s 716 mmHg 70%
12:00 +17°C° 0 mm 8 m/s 717 mmHg 67%
13:00 +17°C° 0 mm 8 m/s 717 mmHg 65%
14:00 +17°C° 0 mm 8 m/s 717 mmHg 66%
15:00 +16°C° 0 mm 8 m/s 717 mmHg 67%
16:00 +16°C° 0 mm 8 m/s 718 mmHg 67%
17:00 +15°C° 0 mm 8 m/s 718 mmHg 69%
18:00 +15°C° 0 mm 7 m/s 718 mmHg 71%
19:00 +14°C° 0 mm 7 m/s 718 mmHg 73%
20:00 +13°C° 0 mm 6 m/s 718 mmHg 74%
21:00 +13°C° 0 mm 6 m/s 718 mmHg 76%
22:00 +11°C° 0 mm 6 m/s 718 mmHg 77%
23:00 +11°C° 0 mm 6 m/s 718 mmHg 78%
Arată mai mult